Location: Bishop�s Knoyle
(51.0728°N, 2.1714°W)
Time: 03:07:54
(UTC+00:00)

UKube-1 - Visible Passes

Search period start: 06 December 2021 00:00
Search period end: 16 December 2021 00:00
Orbit: 612 x 617 km, 98.4° (Epoch: 05 December)

Date Brightness Start Highest point End Pass type
(mag) Time Alt. Az. Time Alt. Az. Time Alt. Az.
07 Dec ? 06:18:15 10° ENE 06:19:33 11° NE 06:20:50 10° NE visible
08 Dec ? 06:32:27 10° E 06:34:49 15° NE 06:37:12 10° NNE visible
09 Dec ? 06:47:06 10° ESE 06:50:08 19° ENE 06:53:11 10° NNE visible
10 Dec ? 07:01:57 10° ESE 07:05:28 25° ENE 07:08:59 10° N visible
11 Dec ? 07:16:59 10° SE 07:20:49 33° ENE 07:24:42 10° N visible
13 Dec ? 06:16:00 10° ENE 06:16:34 10° NE 06:17:08 10° NE visible
14 Dec ? 06:29:43 10° E 06:31:49 13° NE 06:33:55 10° NNE visible
15 Dec ? 06:44:15 10° E 06:47:06 18° ENE 06:49:58 10° NNE visible
